Time,TemperatureF,DewpointF,PressureIn,WindDirection,WindDirectionDegrees,WindSpeedMPH,WindSpeedGustMPH,Humidity,HourlyPrecipIn,Conditions,Clouds,dailyrainin,SoftwareType,DateUTC
2013-08-04 00:00:00,68.8,56.6,29.92,NNE,15,4.0,4.0,65,0.00,,SKC,0.00,VWS V13.01,2013-08-04 07:00:00,
2013-08-04 00:10:00,68.6,56.4,29.92,NNE,32,5.0,6.0,65,0.00,,SKC,0.00,VWS V13.01,2013-08-04 07:10:00,
2013-08-04 00:20:00,68.3,56.5,29.92,NNE,23,5.0,7.0,66,0.00,,SKC,0.00,VWS V13.01,2013-08-04 07:20:00,
2013-08-04 00:30:00,67.9,56.1,29.92,North,0,4.0,7.0,66,0.00,,SKC,0.00,VWS V13.01,2013-08-04 07:30:00,
2013-08-04 00:40:00,67.4,56.1,29.92,North,5,4.0,7.0,67,0.00,,SKC,0.00,VWS V13.01,2013-08-04 07:40:00,
2013-08-04 00:50:00,67.1,56.2,29.92,North,6,4.0,7.0,68,0.00,,SKC,0.00,VWS V13.01,2013-08-04 07:50:00,
2013-08-04 01:00:00,66.9,56.0,29.92,North,2,1.0,7.0,68,0.00,,SKC,0.00,VWS V13.01,2013-08-04 08:00:00,
2013-08-04 01:10:00,66.8,56.3,29.92,North,0,2.0,6.0,69,0.00,,SKC,0.00,VWS V13.01,2013-08-04 08:10:00,
2013-08-04 01:20:00,66.4,55.9,29.92,North,7,3.0,6.0,69,0.00,,SKC,0.00,VWS V13.01,2013-08-04 08:20:00,
2013-08-04 01:30:00,66.4,55.9,29.92,North,0,3.0,5.0,69,0.00,,SKC,0.00,VWS V13.01,2013-08-04 08:30:00,
2013-08-04 01:40:00,66.3,55.8,29.92,North,357,3.0,6.0,69,0.00,,SKC,0.00,VWS V13.01,2013-08-04 08:40:00,
2013-08-04 01:50:00,66.0,55.5,29.92,North,358,4.0,6.0,69,0.00,,SKC,0.00,VWS V13.01,2013-08-04 08:50:00,
2013-08-04 02:00:00,65.6,55.6,29.92,North,6,3.0,6.0,70,0.00,,SKC,0.00,VWS V13.01,2013-08-04 09:00:00,
2013-08-04 02:10:00,65.5,55.9,29.92,North,8,3.0,5.0,71,0.00,,SKC,0.00,VWS V13.01,2013-08-04 09:10:00,
2013-08-04 02:20:00,64.5,54.9,29.92,North,8,0.0,3.0,71,0.00,,SKC,0.00,VWS V13.01,2013-08-04 09:20:00,
2013-08-04 02:30:00,63.2,54.8,29.92,North,8,0.0,1.0,74,0.00,,SKC,0.00,VWS V13.01,2013-08-04 09:30:00,
2013-08-04 02:40:00,62.3,54.3,29.92,NNE,12,0.0,2.0,75,0.00,,SKC,0.00,VWS V13.01,2013-08-04 09:40:00,
2013-08-04 02:50:00,61.6,54.3,29.92,NNE,12,0.0,0.0,77,0.00,,SKC,0.00,VWS V13.01,2013-08-04 09:50:00,
2013-08-04 03:00:00,60.9,54.0,29.92,NNE,12,0.0,0.0,78,0.00,,SKC,0.00,VWS V13.01,2013-08-04 10:00:00,
2013-08-04 03:10:00,60.4,54.2,29.92,NNE,12,0.0,1.0,80,0.00,,SKC,0.00,VWS V13.01,2013-08-04 10:10:00,
2013-08-04 03:20:00,59.9,54.1,29.92,NNE,27,0.0,2.0,81,0.00,,SKC,0.00,VWS V13.01,2013-08-04 10:20:00,
2013-08-04 03:30:00,59.5,54.0,29.92,East,91,2.0,4.0,82,0.00,,SKC,0.00,VWS V13.01,2013-08-04 10:30:00,
2013-08-04 03:40:00,59.0,53.8,29.92,East,91,1.0,3.0,83,0.00,,SKC,0.00,VWS V13.01,2013-08-04 10:40:00,
2013-08-04 03:50:00,58.9,54.1,29.92,East,91,0.0,3.0,84,0.00,,SKC,0.00,VWS V13.01,2013-08-04 10:50:00,
2013-08-04 04:00:00,58.6,53.8,29.92,East,91,3.0,4.0,84,0.00,,SKC,0.00,VWS V13.01,2013-08-04 11:00:00,
2013-08-04 04:10:00,58.4,53.6,29.92,East,91,3.0,3.0,84,0.00,,SKC,0.00,VWS V13.01,2013-08-04 11:10:00,
2013-08-04 04:20:00,58.1,53.6,29.92,East,91,2.0,3.0,85,0.00,,SKC,0.00,VWS V13.01,2013-08-04 11:20:00,
2013-08-04 04:30:00,58.0,53.5,29.92,East,91,0.0,2.0,85,0.00,,SKC,0.00,VWS V13.01,2013-08-04 11:30:00,
2013-08-04 04:40:00,57.8,53.7,29.92,East,91,0.0,2.0,86,0.00,,SKC,0.00,VWS V13.01,2013-08-04 11:40:00,
2013-08-04 04:50:00,57.6,53.5,29.92,East,91,0.0,1.0,86,0.00,,SKC,0.00,VWS V13.01,2013-08-04 11:50:00,
2013-08-04 05:00:00,57.5,53.3,29.92,East,91,1.0,2.0,86,0.00,,SKC,0.00,VWS V13.01,2013-08-04 12:00:00,
2013-08-04 05:10:00,57.2,53.1,29.92,East,91,0.0,3.0,86,0.00,,SKC,0.00,VWS V13.01,2013-08-04 12:10:00,
2013-08-04 05:20:00,57.0,53.2,29.92,East,91,0.0,2.0,87,0.00,,SKC,0.00,VWS V13.01,2013-08-04 12:20:00,
2013-08-04 05:30:00,57.0,53.2,29.93,East,92,3.0,4.0,87,0.00,,SKC,0.00,VWS V13.01,2013-08-04 12:30:00,
2013-08-04 05:40:00,57.0,53.2,29.93,East,91,0.0,3.0,87,0.00,,SKC,0.00,VWS V13.01,2013-08-04 12:40:00,
2013-08-04 05:50:00,56.9,53.1,29.93,East,91,0.0,2.0,87,0.00,,SKC,0.00,VWS V13.01,2013-08-04 12:50:00,
2013-08-04 06:00:00,56.6,52.8,29.93,East,91,0.0,3.0,87,0.00,,SKC,0.00,VWS V13.01,2013-08-04 13:00:00,
2013-08-04 06:10:00,56.5,52.7,29.93,East,91,0.0,1.0,87,0.00,,SKC,0.00,VWS V13.01,2013-08-04 13:10:00,
2013-08-04 06:20:00,56.5,52.7,29.93,East,91,0.0,3.0,87,0.00,,SKC,0.00,VWS V13.01,2013-08-04 13:20:00,
2013-08-04 06:30:00,56.5,52.7,29.93,East,91,1.0,3.0,87,0.00,,SKC,0.00,VWS V13.01,2013-08-04 13:30:00,
2013-08-04 06:40:00,56.5,52.7,29.93,East,91,1.0,3.0,87,0.00,,SKC,0.00,VWS V13.01,2013-08-04 13:40:00,
2013-08-04 06:50:00,56.6,52.8,29.93,East,92,0.0,2.0,87,0.00,,SKC,0.00,VWS V13.01,2013-08-04 13:50:00,
2013-08-04 07:00:00,57.0,53.2,29.94,East,91,0.0,0.0,87,0.00,,SKC,0.00,VWS V13.01,2013-08-04 14:00:00,
2013-08-04 07:10:00,57.3,53.5,29.94,East,91,0.0,0.0,87,0.00,,SKC,0.00,VWS V13.01,2013-08-04 14:10:00,
2013-08-04 07:20:00,57.8,53.7,29.94,East,91,0.0,1.0,86,0.00,,SKC,0.00,VWS V13.01,2013-08-04 14:20:00,
2013-08-04 07:30:00,58.3,53.8,29.94,East,91,0.0,2.0,85,0.00,,SKC,0.00,VWS V13.01,2013-08-04 14:30:00,
2013-08-04 07:40:00,58.9,54.1,29.94,East,91,0.0,3.0,84,0.00,,SKC,0.00,VWS V13.01,2013-08-04 14:40:00,
2013-08-04 07:50:00,59.5,54.3,29.94,East,91,0.0,3.0,83,0.00,,SKC,0.00,VWS V13.01,2013-08-04 14:50:00,
2013-08-04 08:00:00,60.1,54.6,29.94,East,91,3.0,4.0,82,0.00,,SKC,0.00,VWS V13.01,2013-08-04 15:00:00,
2013-08-04 08:10:00,60.9,55.0,29.94,East,92,0.0,3.0,81,0.00,,SKC,0.00,VWS V13.01,2013-08-04 15:10:00,
2013-08-04 08:20:00,62.0,55.4,29.94,East,91,0.0,2.0,79,0.00,,SKC,0.00,VWS V13.01,2013-08-04 15:20:00,
2013-08-04 08:30:00,63.1,55.8,29.94,East,91,1.0,3.0,77,0.00,,SKC,0.00,VWS V13.01,2013-08-04 15:30:00,
2013-08-04 08:40:00,64.2,55.8,29.94,East,92,0.0,2.0,74,0.00,,SKC,0.00,VWS V13.01,2013-08-04 15:40:00,
2013-08-04 08:50:00,65.2,56.0,29.94,East,91,0.0,1.0,72,0.00,,SKC,0.00,VWS V13.01,2013-08-04 15:50:00,
2013-08-04 09:00:00,66.0,56.0,29.94,East,91,0.0,1.0,70,0.00,,SKC,0.00,VWS V13.01,2013-08-04 16:00:00,
2013-08-04 09:10:00,66.8,56.7,29.94,East,91,0.0,3.0,70,0.00,,SKC,0.00,VWS V13.01,2013-08-04 16:10:00,
2013-08-04 09:20:00,67.3,57.2,29.94,East,91,0.0,3.0,70,0.00,,SKC,0.00,VWS V13.01,2013-08-04 16:20:00,
2013-08-04 09:30:00,68.3,57.3,29.94,East,91,2.0,3.0,68,0.00,,SKC,0.00,VWS V13.01,2013-08-04 16:30:00,
2013-08-04 09:40:00,68.9,57.5,29.94,East,91,0.0,4.0,67,0.00,,SKC,0.00,VWS V13.01,2013-08-04 16:40:00,
2013-08-04 09:50:00,69.8,57.9,29.93,NNW,327,2.0,5.0,66,0.00,,SKC,0.00,VWS V13.01,2013-08-04 16:50:00,
2013-08-04 10:00:00,70.3,57.6,29.93,NE,46,4.0,7.0,64,0.00,,SKC,0.00,VWS V13.01,2013-08-04 17:00:00,
2013-08-04 10:10:00,70.4,57.7,29.93,North,10,4.0,7.0,64,0.00,,SKC,0.00,VWS V13.01,2013-08-04 17:10:00,
2013-08-04 10:20:00,70.8,58.0,29.93,NNW,346,5.0,9.0,64,0.00,,SKC,0.00,VWS V13.01,2013-08-04 17:20:00,
2013-08-04 10:30:00,71.1,57.9,29.92,NNW,347,3.0,8.0,63,0.00,,SKC,0.00,VWS V13.01,2013-08-04 17:30:00,
2013-08-04 10:40:00,71.8,58.1,29.92,West,279,5.0,7.0,62,0.00,,SKC,0.00,VWS V13.01,2013-08-04 17:40:00,
2013-08-04 10:50:00,72.5,58.3,29.92,NNW,340,5.0,7.0,61,0.00,,SKC,0.00,VWS V13.01,2013-08-04 17:50:00,
2013-08-04 11:00:00,72.5,58.3,29.92,North,352,0.0,10.0,61,0.00,,SKC,0.00,VWS V13.01,2013-08-04 18:00:00,
2013-08-04 11:10:00,72.8,57.7,29.92,North,353,2.0,10.0,59,0.00,,SKC,0.00,VWS V13.01,2013-08-04 18:10:00,
2013-08-04 11:20:00,73.9,58.2,29.92,NNW,333,0.0,6.0,58,0.00,,SKC,0.00,VWS V13.01,2013-08-04 18:20:00,
2013-08-04 11:30:00,74.4,58.2,29.92,West,272,4.0,8.0,57,0.00,,SKC,0.00,VWS V13.01,2013-08-04 18:30:00,
2013-08-04 11:40:00,74.9,58.7,29.92,NNW,341,1.0,9.0,57,0.00,,SKC,0.00,VWS V13.01,2013-08-04 18:40:00,
2013-08-04 11:50:00,75.3,58.5,29.92,North,0,0.0,10.0,56,0.00,,SKC,0.00,VWS V13.01,2013-08-04 18:50:00,
2013-08-04 12:00:00,76.3,58.5,29.91,West,269,4.0,7.0,54,0.00,,SKC,0.00,VWS V13.01,2013-08-04 19:00:00,
2013-08-04 12:10:00,76.7,58.8,29.91,North,349,3.0,7.0,54,0.00,,SKC,0.00,VWS V13.01,2013-08-04 19:10:00,
2013-08-04 12:20:00,77.2,58.2,29.91,North,0,3.0,9.0,52,0.00,,SKC,0.00,VWS V13.01,2013-08-04 19:20:00,
2013-08-04 12:30:00,77.4,58.4,29.91,West,271,5.0,10.0,52,0.00,,SKC,0.00,VWS V13.01,2013-08-04 19:30:00,
2013-08-04 12:40:00,77.7,58.2,29.91,NNE,15,0.0,12.0,51,0.00,,SKC,0.00,VWS V13.01,2013-08-04 19:40:00,
2013-08-04 12:50:00,78.6,59.0,29.90,North,0,2.0,10.0,51,0.00,,SKC,0.00,VWS V13.01,2013-08-04 19:50:00,
2013-08-04 13:00:00,79.2,58.4,29.89,North,8,4.0,10.0,49,0.00,,SKC,0.00,VWS V13.01,2013-08-04 20:00:00,
2013-08-04 13:10:00,79.2,58.4,29.89,NNE,26,9.0,10.0,49,0.00,,SKC,0.00,VWS V13.01,2013-08-04 20:10:00,
2013-08-04 13:20:00,79.6,57.6,29.89,NNE,16,6.0,10.0,47,0.00,,SKC,0.00,VWS V13.01,2013-08-04 20:20:00,
2013-08-04 13:30:00,79.9,57.9,29.89,North,351,3.0,10.0,47,0.00,,SKC,0.00,VWS V13.01,2013-08-04 20:30:00,
2013-08-04 13:40:00,81.2,57.9,29.89,NNW,344,1.0,12.0,45,0.00,,SKC,0.00,VWS V13.01,2013-08-04 20:40:00,
2013-08-04 13:50:00,81.6,57.0,29.89,North,3,7.0,10.0,43,0.00,,SKC,0.00,VWS V13.01,2013-08-04 20:50:00,
2013-08-04 14:00:00,81.6,57.6,29.88,East,86,0.0,9.0,44,0.00,,SKC,0.00,VWS V13.01,2013-08-04 21:00:00,
2013-08-04 14:10:00,82.4,57.0,29.88,NW,317,3.0,10.0,42,0.00,,SKC,0.00,VWS V13.01,2013-08-04 21:10:00,
2013-08-04 14:20:00,82.8,58.0,29.88,NW,308,1.0,11.0,43,0.00,,SKC,0.00,VWS V13.01,2013-08-04 21:20:00,
2013-08-04 14:30:00,83.4,56.6,29.88,NNE,18,7.0,10.0,40,0.00,,SKC,0.00,VWS V13.01,2013-08-04 21:30:00,
2013-08-04 14:40:00,83.2,56.4,29.88,NW,317,5.0,10.0,40,0.00,,SKC,0.00,VWS V13.01,2013-08-04 21:40:00,
2013-08-04 14:50:00,83.6,56.8,29.87,NW,314,6.0,11.0,40,0.00,,SKC,0.00,VWS V13.01,2013-08-04 21:50:00,
2013-08-04 15:00:00,84.0,56.4,29.86,NNE,18,5.0,9.0,39,0.00,,SKC,0.00,VWS V13.01,2013-08-04 22:00:00,
2013-08-04 15:10:00,84.1,55.0,29.86,NNW,336,0.0,10.0,37,0.00,,SKC,0.00,VWS V13.01,2013-08-04 22:10:00,
2013-08-04 15:20:00,84.3,56.0,29.86,North,5,5.0,11.0,38,0.00,,SKC,0.00,VWS V13.01,2013-08-04 22:20:00,
2013-08-04 15:30:00,84.9,54.2,29.86,ENE,63,3.0,10.0,35,0.00,,SKC,0.00,VWS V13.01,2013-08-04 22:30:00,
2013-08-04 15:40:00,85.3,55.3,29.86,North,354,3.0,11.0,36,0.00,,SKC,0.00,VWS V13.01,2013-08-04 22:40:00,
2013-08-04 15:50:00,85.5,54.8,29.85,NE,37,5.0,12.0,35,0.00,,SKC,0.00,VWS V13.01,2013-08-04 22:50:00,
2013-08-04 16:00:00,85.7,54.1,29.84,North,350,0.0,8.0,34,0.00,,SKC,0.00,VWS V13.01,2013-08-04 23:00:00,
2013-08-04 16:10:00,86.1,55.3,29.84,North,353,4.0,12.0,35,0.00,,SKC,0.00,VWS V13.01,2013-08-04 23:10:00,
2013-08-04 16:20:00,86.3,53.0,29.84,NW,320,2.0,9.0,32,0.00,,SKC,0.00,VWS V13.01,2013-08-04 23:20:00,
2013-08-04 16:30:00,86.7,54.2,29.84,North,358,2.0,11.0,33,0.00,,SKC,0.00,VWS V13.01,2013-08-04 23:30:00,
2013-08-04 16:40:00,87.4,52.2,29.84,NNW,339,3.0,9.0,30,0.00,,SKC,0.00,VWS V13.01,2013-08-04 23:40:00,
2013-08-04 16:50:00,87.8,54.3,29.83,North,356,10.0,12.0,32,0.00,,SKC,0.00,VWS V13.01,2013-08-04 23:50:00,
2013-08-04 17:00:00,87.2,53.8,29.83,North,357,9.0,11.0,32,0.00,,SKC,0.00,VWS V13.01,2013-08-05 00:00:00,
2013-08-04 17:10:00,87.2,53.8,29.83,North,0,0.0,10.0,32,0.00,,SKC,0.00,VWS V13.01,2013-08-05 00:10:00,
2013-08-04 17:20:00,87.4,52.2,29.83,North,358,1.0,11.0,30,0.00,,SKC,0.00,VWS V13.01,2013-08-05 00:20:00,
2013-08-04 17:30:00,87.4,54.0,29.82,North,4,2.0,10.0,32,0.00,,SKC,0.00,VWS V13.01,2013-08-05 00:30:00,
2013-08-04 17:40:00,87.8,53.4,29.82,NNW,348,3.0,17.0,31,0.00,,SKC,0.00,VWS V13.01,2013-08-05 00:40:00,
2013-08-04 17:50:00,88.0,51.8,29.82,NW,314,3.0,11.0,29,0.00,,SKC,0.00,VWS V13.01,2013-08-05 00:50:00,
2013-08-04 18:00:00,87.6,49.5,29.82,WNW,301,2.0,12.0,27,0.00,,SKC,0.00,VWS V13.01,2013-08-05 01:00:00,
2013-08-04 18:10:00,87.6,51.5,29.82,NW,326,5.0,11.0,29,0.00,,SKC,0.00,VWS V13.01,2013-08-05 01:10:00,
2013-08-04 18:20:00,87.4,51.3,29.81,North,359,5.0,12.0,29,0.00,,SKC,0.00,VWS V13.01,2013-08-05 01:20:00,
2013-08-04 18:30:00,87.4,50.3,29.81,North,355,5.0,10.0,28,0.00,,SKC,0.00,VWS V13.01,2013-08-05 01:30:00,
2013-08-04 18:40:00,87.4,51.3,29.81,North,357,5.0,10.0,29,0.00,,SKC,0.00,VWS V13.01,2013-08-05 01:40:00,
2013-08-04 18:50:00,87.4,52.2,29.81,North,0,3.0,11.0,30,0.00,,SKC,0.00,VWS V13.01,2013-08-05 01:50:00,
2013-08-04 19:00:00,87.2,52.0,29.81,North,0,3.0,7.0,30,0.00,,SKC,0.00,VWS V13.01,2013-08-05 02:00:00,
2013-08-04 19:10:00,87.2,52.9,29.81,NNE,14,4.0,9.0,31,0.00,,SKC,0.00,VWS V13.01,2013-08-05 02:10:00,
2013-08-04 19:20:00,87.0,51.8,29.81,North,356,5.0,10.0,30,0.00,,SKC,0.00,VWS V13.01,2013-08-05 02:20:00,
2013-08-04 19:30:00,86.5,53.2,29.81,North,358,0.0,9.0,32,0.00,,SKC,0.00,VWS V13.01,2013-08-05 02:30:00,
2013-08-04 19:40:00,85.9,53.5,29.81,North,11,3.0,7.0,33,0.00,,SKC,0.00,VWS V13.01,2013-08-05 02:40:00,
2013-08-04 19:50:00,85.7,54.1,29.81,NE,40,4.0,7.0,34,0.00,,SKC,0.00,VWS V13.01,2013-08-05 02:50:00,
2013-08-04 20:00:00,85.3,54.6,29.83,NW,316,4.0,7.0,35,0.00,,SKC,0.00,VWS V13.01,2013-08-05 03:00:00,
2013-08-04 20:10:00,84.7,57.7,29.83,North,351,5.0,9.0,40,0.00,,SKC,0.00,VWS V13.01,2013-08-05 03:10:00,
2013-08-04 20:20:00,83.8,58.3,29.83,NNW,332,3.0,8.0,42,0.00,,SKC,0.00,VWS V13.01,2013-08-05 03:20:00,
2013-08-04 20:30:00,82.4,57.7,29.83,North,352,5.0,6.0,43,0.00,,SKC,0.00,VWS V13.01,2013-08-05 03:30:00,
2013-08-04 20:40:00,81.6,57.6,29.83,North,352,0.0,5.0,44,0.00,,SKC,0.00,VWS V13.01,2013-08-05 03:40:00,
2013-08-04 20:50:00,81.1,57.8,29.84,North,352,0.0,3.0,45,0.00,,SKC,0.00,VWS V13.01,2013-08-05 03:50:00,
2013-08-04 21:00:00,80.3,57.7,29.84,NE,34,3.0,3.0,46,0.00,,SKC,0.00,VWS V13.01,2013-08-05 04:00:00,
2013-08-04 21:10:00,79.2,57.2,29.84,NNE,15,0.0,5.0,47,0.00,,SKC,0.00,VWS V13.01,2013-08-05 04:10:00,
2013-08-04 21:20:00,78.1,56.8,29.85,North,0,3.0,5.0,48,0.00,,SKC,0.00,VWS V13.01,2013-08-05 04:20:00,
2013-08-04 21:30:00,77.4,56.8,29.86,North,352,0.0,6.0,49,0.00,,SKC,0.00,VWS V13.01,2013-08-05 04:30:00,
2013-08-04 21:40:00,76.3,57.4,29.86,North,7,0.0,6.0,52,0.00,,SKC,0.00,VWS V13.01,2013-08-05 04:40:00,
2013-08-04 21:50:00,75.1,57.3,29.87,NE,43,0.0,5.0,54,0.00,,SKC,0.00,VWS V13.01,2013-08-05 04:50:00,
2013-08-04 22:00:00,74.4,57.2,29.87,NNE,23,0.0,4.0,55,0.00,,SKC,0.00,VWS V13.01,2013-08-05 05:00:00,
2013-08-04 22:10:00,73.9,57.2,29.87,NNE,23,1.0,3.0,56,0.00,,SKC,0.00,VWS V13.01,2013-08-05 05:10:00,
2013-08-04 22:20:00,73.5,56.9,29.87,North,358,0.0,5.0,56,0.00,,SKC,0.00,VWS V13.01,2013-08-05 05:20:00,
2013-08-04 22:30:00,73.0,56.9,29.87,North,3,0.0,3.0,57,0.00,,SKC,0.00,VWS V13.01,2013-08-05 05:30:00,
2013-08-04 22:40:00,72.3,56.7,29.87,NNE,20,1.0,4.0,58,0.00,,SKC,0.00,VWS V13.01,2013-08-05 05:40:00,
2013-08-04 22:50:00,72.0,56.9,29.88,NNE,20,0.0,3.0,59,0.00,,SKC,0.00,VWS V13.01,2013-08-05 05:50:00,
2013-08-04 23:00:00,71.8,57.2,29.88,NNE,20,0.0,3.0,60,0.00,,SKC,0.00,VWS V13.01,2013-08-05 06:00:00,
2013-08-04 23:10:00,71.6,57.5,29.88,NNE,20,0.0,2.0,61,0.00,,SKC,0.00,VWS V13.01,2013-08-05 06:10:00,
2013-08-04 23:20:00,71.5,57.4,29.87,NNE,20,0.0,0.0,61,0.00,,SKC,0.00,VWS V13.01,2013-08-05 06:20:00,
2013-08-04 23:30:00,71.3,57.6,29.88,NNE,20,0.0,0.0,62,0.00,,SKC,0.00,VWS V13.01,2013-08-05 06:30:00,
2013-08-04 23:40:00,70.9,57.7,29.88,NNE,20,0.0,0.0,63,0.00,,SKC,0.00,VWS V13.01,2013-08-05 06:40:00,
2013-08-04 23:50:00,70.3,57.6,29.88,NNE,20,0.0,0.0,64,0.00,,SKC,0.00,VWS V13.01,2013-08-05 06:50:00,